Location: ?????????
(55.6553°N, 38.9075°E)
Time: 20:49:07
(UTC+00:00)

Cosmos 2333 - Pass Details

Date: 18 October 2019
Orbit: 829 x 866 km, 70.9° (Epoch: 20 November)

Event Time Altitude Azimuth Distance (km) Brightness Sun altitude
Exits shadow 01:28:08 36° 208° (SSW) 1,306 4.8 -22.0°
Maximum altitude 01:30:33 86° 123° (ESE) 849 4.1 -21.6°
Drops below altitude 10° 01:36:15 10° 35° (NE) 2,478 7.3 -20.9°
Sets 01:38:44 0° 35° (NE) 3,423 8.1 -20.5°
